Home   Weather   Iasi   Past weeks

Flag for Romania Past Weather in Iasi, Romania — Yesterday and Last 2 Weeks

Now
52 °F

Clear.


Feels Like: 49 °F
Forecast: 47 / 64 °F
Wind: 7 mph from Northwest

Location: Iasi Airport

Current Time: Sep 26, 2016 at 11:56:11 PM

Latest Report: Sep 26, 2016 at 11:00 PM


Visibility: 10 mi

Pressure: 30.24 "Hg

Humidity: 77%

Dew Point: 45 °F

Location of IasiLocation

Past Weather in Iasi — Graph

°F

Iasi Temperature Yesterday

Maximum temperature yesterday: 61 °F (at 1:00 PM)
Minimum temperature yesterday: 52 °F (at 7:30 AM)
Average temperature yesterday: 56 °F

High & Low Weather Summary for the Past Weeks

 TemperatureHumidityPressure
High88 °F (Sep 13, 2:00 PM)94% (Sep 25, 7:30 AM)30.30 "Hg (Sep 25, 7:30 AM)
Low45 °F (Sep 22, 4:00 AM)22% (Sep 13, 3:00 PM)29.74 "Hg (Sep 20, 6:00 AM)
Average63 °F53%30.02 "Hg
* Reported Sep 11 10:00 PM — Sep 26 10:00 PM, Iasi, Weather by CustomWeather, © 2016

Note: Actual official high and low records may vary slightly from our data, if they occured in-between our weather recording intervals... More about our weather records

Advertising

Iasi Weather History for the Previous 24 Hours

Scroll right to see more
 ConditionsComfort  
Time TempWeatherWind HumidityBarometerVisibility
10:00 PM
Mon, Sep 26
52 °FClear.8 mph77%30.24 "Hg10 mi
9:00 PM54 °FClear.7 mph72%30.24 "Hg10 mi
8:30 PM54 °FClear.7 mph72%30.24 "Hg10 mi
8:00 PM55 °FClear.6 mph67%30.21 "Hg10 mi
7:30 PM55 °FClear.7 mph67%30.21 "Hg10 mi
7:00 PM57 °FClear.5 mph63%30.21 "Hg10 mi
6:30 PM59 °FSunny.7 mph59%30.21 "Hg10 mi
5:30 PM59 °FSunny.8 mph59%30.18 "Hg10 mi
5:00 PM61 °FSunny.9 mph55%30.18 "Hg10 mi
4:30 PM61 °FScattered clouds.12 mph55%30.18 "HgN/A
4:00 PM61 °FScattered clouds.10 mph52%30.18 "HgN/A
3:30 PM63 °FPassing clouds.7 mph45%30.18 "HgN/A
3:00 PM63 °FScattered clouds.10 mph49%30.18 "HgN/A
2:00 PM63 °FScattered clouds.9 mph49%30.18 "HgN/A
1:30 PM61 °FScattered clouds.9 mph52%30.18 "HgN/A
1:00 PM63 °FScattered clouds.8 mph52%30.18 "HgN/A
12:30 PM63 °FScattered clouds.10 mph56%30.18 "HgN/A
12:00 PM63 °FScattered clouds.9 mph56%30.18 "HgN/A
11:30 AM59 °FScattered clouds.7 mph63%30.18 "HgN/A
11:00 AM59 °FPassing clouds.5 mph63%30.18 "HgN/A
10:30 AM55 °FScattered clouds.3 mph72%30.18 "HgN/A
10:00 AM54 °FPassing clouds.5 mph77%30.18 "HgN/A
9:30 AM52 °FScattered clouds.5 mph82%30.18 "HgN/A
9:00 AM52 °FPartly sunny.6 mph82%30.18 "HgN/A
8:30 AM50 °FPartly sunny.6 mph88%30.18 "HgN/A
8:00 AM50 °FScattered clouds.6 mph88%30.15 "HgN/A
7:30 AM50 °FPassing clouds.7 mph88%30.15 "HgN/A
7:00 AM52 °FPassing clouds.7 mph82%30.15 "HgN/A
6:30 AM52 °FPassing clouds.7 mph82%30.15 "HgN/A
6:00 AM52 °FPassing clouds.6 mph82%30.15 "HgN/A
5:30 AM52 °FLight rain. Passing clouds.5 mph88%30.15 "HgN/A
5:00 AM52 °FLight rain. Passing clouds.6 mph88%30.15 "HgN/A
4:00 AM52 °FPassing clouds.3 mph88%30.15 "HgN/A
3:00 AM52 °FPartly cloudy.3 mph88%30.15 "HgN/A
2:00 AM52 °FPassing clouds.3 mph82%30.15 "HgN/A
1:00 AM54 °FPassing clouds.5 mph82%30.12 "HgN/A
12:00 AM54 °FClear.3 mph82%30.15 "Hg10 mi
11:00 PM
Sun, Sep 25
54 °FPassing clouds.5 mph82%30.15 "HgN/A
Weather by CustomWeather, © 2016

See weather overviewHow to use our weather pages